FW5487 Weather Reports


Display with metric or nautical units.
time (UTC)temp
F
wind
direction
speed
MPH
gust
MPH
rain 1hr
in
rain 24hr
in
rain mn
in
humidity
%
barometer
mb
20260509054204 60 276 1.0 2.0 0.00 0.43 0.00 96 1000.0
20260509053704 60 246 3.0 5.0 0.00 0.43 0.00 97 1000.0
20260509053204 60 246 2.0 5.0 0.00 0.43 0.00 97 1000.0
20260509052703 60 268 2.0 5.0 0.00 0.43 0.00 96 1000.0
20260509052203 59 266 3.0 6.0 0.00 0.43 0.00 97 1000.0
20260509051704 59 293 4.0 7.0 0.00 0.43 0.00 96 1000.0
20260509051203 59 266 4.0 7.0 0.00 0.43 0.00 97 1000.0
20260509050703 60 269 3.0 7.0 0.00 0.43 0.00 97 1000.0
20260509050204 60 291 2.0 9.0 0.00 0.43 0.00 97 1000.0
20260509045204 59 291 2.0 3.0 0.00 0.43 0.43 96 1000.0
20260509044703 60 202 0.0 2.0 0.00 0.43 0.43 96 1000.0
20260509043704 59 252 2.0 3.0 0.00 0.43 0.43 96 1000.0
20260509043204 59 234 3.0 5.0 0.00 0.43 0.43 96 1000.0
20260509042703 59 244 3.0 3.0 0.00 0.43 0.43 96 1000.0
20260509042203 60 254 1.0 3.0 0.00 0.43 0.43 96 1000.0
20260509041704 59 233 3.0 3.0 0.00 0.43 0.43 96 1000.0
20260509041204 60 229 2.0 3.0 0.00 0.43 0.43 96 1000.0
20260509040703 60 224 1.0 2.0 0.00 0.43 0.43 96 1000.0
20260509035704 60 197 0.0 2.0 0.00 0.43 0.43 96 1000.0
20260509034703 59 161 5.0 6.0 0.00 0.43 0.43 96 1000.0
20260509033704 60 160 5.0 7.0 0.03 0.43 0.43 96 1000.0
20260509032703 60 151 5.0 7.0 0.05 0.43 0.43 96 1000.0
20260509032204 60 155 5.0 7.0 0.05 0.43 0.43 96 1000.0
20260509031704 60 125 3.0 7.0 0.06 0.43 0.43 96 1000.0
20260509031203 60 151 6.0 8.0 0.07 0.43 0.43 96 1000.0
20260509030703 60 166 6.0 8.0 0.07 0.43 0.43 96 1000.0
20260509025704 60 131 5.0 9.0 0.10 0.43 0.43 96 1000.0
20260509024203 60 153 5.0 8.0 0.12 0.42 0.42 96 1000.0
20260509023704 60 150 7.0 9.0 0.10 0.40 0.40 96 1000.0
20260509022704 61 142 3.0 5.0 0.12 0.38 0.38 96 1000.0
20260509022204 61 130 3.0 9.0 0.13 0.38 0.38 96 1000.0
20260509021704 61 145 5.0 6.0 0.14 0.37 0.37 96 1000.0
20260509021204 61 158 5.0 6.0 0.19 0.36 0.36 96 1000.0
20260509020204 61 39 2.0 6.0 0.21 0.35 0.35 96 1000.0
20260509015704 62 25 2.0 6.0 0.20 0.33 0.33 96 1000.0
20260509015203 62 14 2.0 9.0 0.21 0.32 0.32 96 1000.0
20260509014704 62 343 3.0 6.0 0.22 0.31 0.31 96 1000.0
20260509014203 62 349 2.0 5.0 0.23 0.30 0.30 96 1000.0
20260509013704 62 30 1.0 3.0 0.23 0.30 0.30 96 1000.0
20260509013204 62 39 2.0 5.0 0.21 0.28 0.28 96 1000.0
20260509012704 62 29 1.0 3.0 0.19 0.26 0.26 95 1000.0
20260509012203 62 154 2.0 3.0 0.18 0.25 0.25 95 1000.0
20260509011703 62 42 3.0 8.0 0.16 0.23 0.23 96 1000.0
20260509011204 62 46 5.0 9.0 0.10 0.17 0.17 95 1000.0
20260509010705 62 25 5.0 12.0 0.08 0.15 0.15 95 1000.0
20260509010203 62 9 8.0 18.0 0.07 0.14 0.14 95 1000.0
20260509005703 62 0 6.0 12.0 0.06 0.13 0.13 95 1000.0
20260509005206 62 6 5.0 9.0 0.04 0.11 0.11 94 1000.0
20260509004703 62 357 9.0 16.0 0.02 0.09 0.09 94 1000.0
20260509004204 62 5 8.0 22.0 0.00 0.07 0.07 94 1000.0
20260509003703 63 335 9.0 15.0 0.00 0.07 0.07 95 1000.0
20260509003203 63 356 5.0 12.0 0.00 0.07 0.07 94 1000.0
20260509002203 63 102 2.0 3.0 0.00 0.07 0.07 93 1000.0
20260509001704 63 112 1.0 3.0 0.00 0.07 0.07 93 1000.0
20260509001204 63 134 2.0 7.0 0.00 0.07 0.07 93 1000.0
20260509000703 63 136 4.0 7.0 0.00 0.07 0.07 93 1000.0
20260509000204 63 142 5.0 6.0 0.00 0.07 0.07 93 1000.0
20260508235703 63 153 5.0 7.0 0.00 0.07 0.07 92 1000.0
20260508235203 63 155 6.0 8.0 0.00 0.07 0.07 92 1000.0
20260508233703 64 147 5.0 8.0 0.01 0.07 0.07 91 1000.0
20260508233203 64 145 5.0 7.0 0.01 0.07 0.07 92 1000.0
20260508232704 64 134 3.0 5.0 0.02 0.07 0.07 91 1000.0
20260508232204 64 150 3.0 5.0 0.04 0.07 0.07 91 1000.0
20260508231703 64 147 4.0 7.0 0.05 0.07 0.07 90 1000.0
20260508231204 64 127 3.0 7.0 0.06 0.07 0.07 90 1000.0
20260508230204 63 159 6.0 8.0 0.07 0.07 0.07 91 1000.0
20260508225704 63 153 7.0 9.0 0.07 0.07 0.07 91 1000.0
20260508225203 63 159 7.0 9.0 0.07 0.07 0.07 91 1000.0
20260508224704 63 160 7.0 8.0 0.07 0.07 0.07 90 1000.0
20260508224204 63 154 7.0 10.0 0.06 0.06 0.06 90 1000.0
20260508223703 63 170 9.0 13.0 0.06 0.06 0.06 92 1000.0
20260508222703 65 159 2.0 5.0 0.05 0.05 0.05 84 1000.0
20260508222203 66 281 1.0 5.0 0.03 0.03 0.03 81 1000.0
20260508221704 66 322 3.0 8.0 0.02 0.02 0.02 83 1000.0
20260508221204 67 313 4.0 13.0 0.01 0.01 0.01 81 1000.0
20260508220704 68 309 8.0 14.0 0.00 0.00 0.00 73 1000.0
20260508220204 69 352 3.0 7.0 0.00 0.00 0.00 68 1000.0
20260508215704 70 1 3.0 6.0 0.00 0.00 0.00 66 1000.0
20260508215203 70 271 1.0 6.0 0.00 0.00 0.00 65 1000.0
20260508214703 71 18 0.0 2.0 0.00 0.00 0.00 64 1000.0
20260508214204 71 7 2.0 5.0 0.00 0.00 0.00 63 1000.0
20260508212704 71 28 3.0 7.0 0.00 0.00 0.00 61 1000.0
20260508212203 72 1 4.0 10.0 0.00 0.00 0.00 62 1000.0
20260508211204 73 346 2.0 5.0 0.00 0.00 0.00 60 1000.0
20260508210703 73 21 3.0 6.0 0.00 0.00 0.00 58 1000.0
20260508210204 74 29 3.0 5.0 0.00 0.00 0.00 57 1000.0
20260508205704 74 21 0.0 2.0 0.00 0.00 0.00 56 1000.0
20260508205203 74 38 0.0 0.0 0.00 0.00 0.00 55 1000.0
20260508204703 74 66 1.0 1.0 0.00 0.00 0.00 53 1000.0
20260508204203 74 90 0.0 5.0 0.00 0.00 0.00 53 1000.0
20260508203704 74 315 0.0 3.0 0.00 0.00 0.00 52 1000.0
20260508203204 74 251 1.0 5.0 0.00 0.00 0.00 54 1000.0
20260508202204 73 192 1.0 5.0 0.00 0.00 0.00 55 1000.0
20260508201704 73 232 3.0 5.0 0.00 0.00 0.00 55 1000.0
20260508201204 73 223 5.0 8.0 0.00 0.00 0.00 54 1000.0
20260508200703 74 261 5.0 8.0 0.00 0.00 0.00 53 1000.0
20260508200203 75 237 2.0 8.0 0.00 0.00 0.00 52 1000.0
20260508195703 75 258 5.0 8.0 0.00 0.00 0.00 54 1000.0
20260508195204 74 232 3.0 8.0 0.00 0.00 0.00 54 1000.0
20260508194704 74 221 3.0 9.0 0.00 0.00 0.00 53 1000.0
20260508193703 73 307 2.0 7.0 0.00 0.00 0.00 56 1000.0
20260508193203 72 262 4.0 8.0 0.00 0.00 0.00 58 1000.0
20260508192703 72 310 3.0 5.0 0.00 0.00 0.00 58 1000.0
20260508192204 72 302 5.0 8.0 0.00 0.00 0.00 58 1000.0
20260508191704 72 275 3.0 8.0 0.00 0.00 0.00 58 1000.0
20260508191204 71 205 8.0 12.0 0.00 0.00 0.00 57 1000.0
20260508190703 71 221 7.0 12.0 0.00 0.00 0.00 58 1000.0
20260508185703 70 216 10.0 14.0 0.00 0.00 0.00 56 1000.0
20260508185204 70 190 7.0 10.0 0.00 0.00 0.00 60 1000.0
20260508184706 70 204 9.0 12.0 0.00 0.00 0.00 58 1000.0
20260508184203 70 202 7.0 12.0 0.00 0.00 0.00 60 1000.0
20260508183204 69 209 7.0 14.0 0.00 0.00 0.00 60 1000.0
20260508182704 69 209 10.0 14.0 0.00 0.00 0.00 61 1000.0
20260508181703 68 211 9.0 13.0 0.00 0.00 0.00 61 1000.0
20260508181203 68 203 10.0 14.0 0.00 0.00 0.00 62 1000.0
20260508180703 68 213 9.0 14.0 0.00 0.00 0.00 62 1000.0
20260508180204 68 211 9.0 13.0 0.00 0.00 0.00 62 1000.0
20260508175704 68 205 8.0 13.0 0.00 0.00 0.00 62 1000.0
20260508175203 67 205 11.0 17.0 0.00 0.00 0.00 60 1000.0
20260508174703 67 216 11.0 16.0 0.00 0.00 0.00 60 1000.0
20260508174204 67 209 10.0 17.0 0.00 0.00 0.00 60 1000.0
20260508173703 67 208 10.0 16.0 0.00 0.00 0.00 60 1000.0
20260508173203 68 205 9.0 15.0 0.00 0.00 0.00 61 1000.0
20260508172703 68 212 9.0 14.0 0.00 0.00 0.00 60 1000.0
20260508172203 68 197 9.0 15.0 0.00 0.00 0.00 60 1000.0
20260508171703 68 216 9.0 15.0 0.00 0.00 0.00 60 1000.0
20260508171203 68 213 12.0 17.0 0.00 0.00 0.00 58 1000.0
20260508170703 68 211 12.0 18.0 0.00 0.00 0.00 58 1000.0
20260508170203 68 195 11.0 17.0 0.00 0.00 0.00 60 1000.0
20260508165704 67 214 12.0 16.0 0.00 0.00 0.00 61 1000.0
20260508165204 67 209 10.0 17.0 0.00 0.00 0.00 62 1000.0
20260508164703 67 207 10.0 14.0 0.00 0.00 0.00 62 1000.0
20260508164204 66 204 10.0 14.0 0.00 0.00 0.00 63 1000.0
20260508163703 66 213 10.0 15.0 0.00 0.00 0.00 63 1000.0
20260508163203 67 200 8.0 14.0 0.00 0.00 0.00 63 1000.0
20260508162704 66 211 10.0 18.0 0.00 0.00 0.00 63 1000.0
20260508162204 66 202 10.0 15.0 0.00 0.00 0.00 61 1000.0
20260508161704 66 218 8.0 15.0 0.00 0.00 0.00 63 1000.0
20260508161204 65 209 10.0 16.0 0.00 0.00 0.00 64 1000.0
20260508160703 65 214 12.0 15.0 0.00 0.00 0.00 63 1000.0
20260508160204 65 197 12.0 17.0 0.00 0.00 0.00 64 1000.0
20260508155704 64 206 9.0 14.0 0.00 0.00 0.00 65 1000.0
20260508154703 64 207 9.0 13.0 0.00 0.00 0.00 63 1000.0
20260508154204 63 210 10.0 15.0 0.00 0.00 0.00 65 1000.0
20260508153203 63 207 9.0 16.0 0.00 0.00 0.00 66 1000.0
20260508152704 62 208 13.0 17.0 0.00 0.00 0.00 64 1000.0
20260508152204 62 197 10.0 18.0 0.00 0.00 0.00 65 1000.0
20260508151703 62 208 13.0 20.0 0.00 0.00 0.00 65 1000.0
20260508151204 62 232 9.0 16.0 0.00 0.00 0.00 65 1000.0
20260508150703 62 235 10.0 23.0 0.00 0.00 0.00 63 1000.0
20260508150204 62 209 14.0 21.0 0.00 0.00 0.00 63 1000.0
20260508145703 62 222 10.0 15.0 0.00 0.00 0.00 67 1000.0
20260508144703 61 243 6.0 12.0 0.00 0.00 0.00 67 1000.0
20260508144204 60 220 6.0 9.0 0.00 0.00 0.00 68 1000.0
20260508143704 60 227 5.0 8.0 0.00 0.00 0.00 68 1000.0
20260508143203 60 217 5.0 9.0 0.00 0.00 0.00 68 1000.0
20260508142704 60 208 6.0 12.0 0.00 0.00 0.00 68 1000.0
20260508142204 60 208 6.0 9.0 0.00 0.00 0.00 68 1000.0
20260508141703 60 222 5.0 7.0 0.00 0.00 0.00 67 1000.0
20260508141204 60 227 3.0 8.0 0.00 0.00 0.00 68 1000.0
20260508140704 60 223 6.0 15.0 0.00 0.00 0.00 67 1000.0
20260508140204 59 209 9.0 13.0 0.00 0.00 0.00 67 1000.0
20260508135703 60 210 7.0 10.0 0.00 0.00 0.00 67 1000.0
20260508135204 60 203 7.0 10.0 0.00 0.00 0.00 67 1000.0
20260508134704 60 204 8.0 12.0 0.00 0.00 0.00 66 1000.0
20260508133203 60 217 7.0 9.0 0.00 0.00 0.00 65 1000.0
20260508132704 60 232 6.0 8.0 0.00 0.00 0.00 65 1000.0
20260508132204 60 225 5.0 8.0 0.00 0.00 0.00 65 1000.0
20260508131203 60 216 6.0 9.0 0.00 0.00 0.00 65 1000.0
20260508130704 60 200 6.0 9.0 0.00 0.00 0.00 65 1000.0
20260508130204 60 215 5.0 8.0 0.00 0.00 0.00 65 1000.0
20260508125704 60 197 6.0 9.0 0.00 0.00 0.00 65 1000.0
20260508125203 60 218 7.0 12.0 0.00 0.00 0.00 64 1000.0
20260508123703 59 201 5.0 10.0 0.00 0.00 0.00 67 1000.0
20260508123203 59 204 5.0 9.0 0.00 0.00 0.00 66 1000.0
20260508122703 58 204 5.0 9.0 0.00 0.00 0.00 69 1000.0
20260508122204 58 196 2.0 6.0 0.00 0.00 0.00 71 1000.0
20260508121703 57 197 2.0 5.0 0.00 0.00 0.00 71 1000.0
20260508121204 57 221 5.0 7.0 0.00 0.00 0.00 71 1000.0
20260508120704 57 175 4.0 7.0 0.00 0.00 0.00 70 1000.0
20260508115204 56 176 5.0 6.0 0.00 0.00 0.00 72 1000.0
20260508114703 56 173 6.0 9.0 0.00 0.00 0.00 72 1000.0
20260508113703 55 168 4.0 6.0 0.00 0.00 0.00 75 1000.0
20260508113203 54 180 5.0 7.0 0.00 0.00 0.00 76 1000.0
20260508112704 54 172 5.0 8.0 0.00 0.00 0.00 76 1000.0
20260508112204 54 170 5.0 7.0 0.00 0.00 0.00 76 1000.0
20260508111703 54 172 5.0 7.0 0.00 0.00 0.00 76 1000.0
20260508110204 53 167 5.0 7.0 0.00 0.00 0.00 78 1000.0
20260508105204 53 172 5.0 7.0 0.00 0.00 0.00 78 1000.0
20260508104703 53 153 6.0 7.0 0.00 0.00 0.00 78 1000.0
20260508104203 53 157 6.0 7.0 0.00 0.00 0.00 77 1000.0
20260508103703 53 166 6.0 8.0 0.00 0.00 0.00 77 1000.0
20260508103203 53 167 5.0 7.0 0.00 0.00 0.00 77 1000.0
20260508102703 53 173 5.0 7.0 0.00 0.00 0.00 76 1000.0
20260508102203 54 198 3.0 5.0 0.00 0.00 0.00 76 1000.0
20260508101704 54 202 4.0 7.0 0.00 0.00 0.00 76 1000.0
20260508100703 54 185 5.0 9.0 0.00 0.00 0.00 75 1000.0
20260508100203 54 202 6.0 8.0 0.00 0.00 0.00 74 1000.0
20260508095704 54 202 5.0 7.0 0.00 0.00 0.00 75 1000.0
20260508095204 54 192 5.0 8.0 0.00 0.00 0.00 76 1000.0
20260508094203 54 184 6.0 8.0 0.00 0.00 0.00 76 1000.0
20260508092704 54 179 6.0 7.0 0.00 0.00 0.00 76 1000.0
20260508092204 54 203 5.0 7.0 0.00 0.00 0.00 76 1000.0
20260508091703 53 179 5.0 7.0 0.00 0.00 0.00 78 1000.0
20260508091204 53 180 6.0 8.0 0.00 0.00 0.00 79 1000.0
20260508090704 54 168 6.0 8.0 0.00 0.00 0.00 77 1000.0
20260508090204 54 173 6.0 7.0 0.00 0.00 0.00 76 1000.0
20260508085204 55 163 5.0 7.0 0.00 0.00 0.00 73 1000.0
20260508084704 56 188 3.0 6.0 0.00 0.00 0.00 71 1000.0
20260508084204 56 199 4.0 7.0 0.00 0.00 0.00 71 1000.0
20260508083704 56 207 4.0 7.0 0.00 0.00 0.00 72 1000.0
20260508083203 55 203 3.0 8.0 0.00 0.00 0.00 74 1000.0
20260508082703 55 202 4.0 7.0 0.00 0.00 0.00 75 1000.0
20260508082204 55 187 5.0 6.0 0.00 0.00 0.00 73 1000.0
20260508081704 56 208 4.0 7.0 0.00 0.00 0.00 70 1000.0
20260508081203 56 216 3.0 7.0 0.00 0.00 0.00 70 1000.0
20260508080704 56 208 3.0 5.0 0.00 0.00 0.00 70 1000.0
20260508080204 56 204 4.0 8.0 0.00 0.00 0.00 70 1000.0
20260508075703 56 206 4.0 6.0 0.00 0.00 0.00 69 1000.0
20260508075204 57 213 5.0 8.0 0.00 0.00 0.00 68 1000.0
20260508074704 57 215 5.0 7.0 0.00 0.00 0.00 68 1000.0
20260508074203 57 211 5.0 6.0 0.00 0.00 0.00 68 1000.0
20260508073704 57 217 4.0 6.0 0.00 0.00 0.00 68 1000.0
20260508073204 57 216 3.0 7.0 0.00 0.00 0.00 68 1000.0
20260508072703 57 211 5.0 7.0 0.00 0.00 0.00 68 1000.0
20260508072204 57 214 5.0 7.0 0.00 0.00 0.00 68 1000.0
20260508071203 56 213 5.0 7.0 0.00 0.00 0.00 69 1000.0
20260508070704 56 202 5.0 7.0 0.00 0.00 0.00 70 1000.0
20260508070204 55 203 5.0 7.0 0.00 0.00 0.00 72 1000.0
20260508065703 55 204 5.0 7.0 0.00 0.00 0.00 73 1000.0
20260508065203 54 179 5.0 7.0 0.00 0.00 0.00 74 1000.0
20260508064703 54 178 5.0 6.0 0.00 0.00 0.00 74 1000.0
20260508063703 54 170 5.0 6.0 0.00 0.00 0.00 74 1000.0
20260508063203 55 172 5.0 7.0 0.00 0.00 0.00 73 1000.0
20260508062704 55 165 5.0 6.0 0.00 0.00 0.00 72 1000.0
20260508061704 56 177 3.0 5.0 0.00 0.00 0.00 71 1000.0
20260508061203 56 177 3.0 5.0 0.00 0.00 0.00 70 1000.0
20260508060703 57 184 2.0 5.0 0.00 0.00 0.00 69 1000.0
20260508060203 57 196 2.0 5.0 0.00 0.00 0.00 68 1000.0
20260508055703 57 198 3.0 5.0 0.00 0.00 0.00 67 1000.0
20260508055203 57 190 2.0 3.0 0.00 0.00 0.00 67 1000.0
20260508054704 58 199 2.0 3.0 0.00 0.00 0.00 66 1000.0